Regional Weather Roundup
Issued by NWS

Home | Current Version | Previous Version | Graphics & Text | Print | Product List | Glossary On
Versions: 1 2 3 4 5 6 7 8 9 10 11 12 13 14 15 16 17 18 19 20 21 22 23 24 25 26 27
000
ASUS45 KPSR 191910
RWRAZ

ARIZONA HOURLY REGIONAL WEATHER ROUNDUP
NATIONAL WEATHER SERVICE PHOENIX AZ
1200 PM MST SUN NOV 19 2017

NOTE: FAIR INDICATES FEW OR NO CLOUDS BELOW 12,000 FEET WITH NO
SIGNIFICANT WEATHER AND/OR OBSTRUCTIONS TO VISIBILITY.

AZZ001>003-036-192000-
NORTHWEST ARIZONA

CITY           SKY/WX    TMP DP  RH WIND       PRES   REMARKS
BULLHEAD CITY  SUNNY     64  10  12 N24G31    30.12F
KINGMAN        SUNNY     59   7  12 N7        30.17F
$$

AZZ004>008-015-016-018-192000-
NORTH CENTRAL ARIZONA

CITY           SKY/WX    TMP DP  RH WIND       PRES   REMARKS
GRAND CANYON   SUNNY     54   5  14 CALM      30.27F
WILLIAMS       SUNNY     57   5  12 CALM      30.24F
PRESCOTT       SUNNY     54   9  16 N3        30.20F
FLAGSTAFF      SUNNY     50   5  16 NE7       30.26F
PAYSON           N/A     59  12  15 SE6G13    30.22F
PAGE           SUNNY     43  14  31 CALM      30.31F
$$

AZZ009>014-017-192000-
NORTHEAST ARIZONA

CITY           SKY/WX    TMP DP  RH WIND       PRES   REMARKS
WINSLOW        SUNNY     45   5  19 CALM      30.29F
SAINT JOHNS    SUNNY     48  11  22 VRB6      30.24F
WINDOW ROCK    SUNNY     53   3  13 VRB3      30.27F
SHOW LOW       SUNNY     50   7  17 N7        30.27F
$$

AZZ540-542>544-546-548-192000-
GREATER PHOENIX AREA

CITY           SKY/WX    TMP DP  RH WIND       PRES   REMARKS
PHOENIX        SUNNY     76  21  12 E8        30.02F
BUCKEYE        SUNNY     73  70  88 E8        30.04F
GLENDALE       SUNNY     75  21  13 CALM      30.06F
LUKE AFB       SUNNY     76  20  12 E6        30.01F
DEER VALLEY    SUNNY     76  16  10 E10G17    30.03F
SCOTTSDALE     SUNNY     74  23  15 VRB3      30.05F
MESA-FALCON    SUNNY     75  21  13 N9        30.05F
MESA-GATEWAY   SUNNY     73  21  14 N8        30.07F
CHANDLER       SUNNY     75  19  12 N7        30.04F
$$

AZZ539-553-192000-
SOUTHWEST MARICOPA COUNTY AND PINAL COUNTY

CITY           SKY/WX    TMP DP  RH WIND       PRES   REMARKS
CASA GRANDE    NOT AVBL
$$

AZZ503-504-507>509-192000-
SOUTHEAST ARIZONA

CITY           SKY/WX    TMP DP  RH WIND       PRES   REMARKS
TUCSON         SUNNY     75  23  14 E16G23    30.07F
DAVIS-MONTHAN  SUNNY     75  24  15 SE16      30.05F
RYAN FIELD     SUNNY     75  27  16 MISG      30.07F
NOGALES        SUNNY     72  26  18 SW3       30.08F
SIERRA VISTA   SUNNY     66  22  18 E5        30.16F
DOUGLAS        SUNNY     67  24  19 E12G18    30.14F
SAFFORD        SUNNY     63  17  17 SE7       30.18F
$$

AZZ532-192000-
SOUTHWEST ARIZONA

CITY           SKY/WX    TMP DP  RH WIND       PRES   REMARKS
YUMA           SUNNY     72  12  10 N14       30.05F
$$

CAZ041-043-047-048-061-525>527-560>570-192000-
SOUTHERN CALIFORNIA

CITY           SKY/WX    TMP DP  RH WIND       PRES   REMARKS
DOWNTOWN L.A.  MOSUNNY   73  27  18 CALM      30.04F
L.A. AIRPORT   MOSUNNY   73  24  16 CALM      30.05F
SAN DIEGO      MOSUNNY   72  36  26 NW5       30.05F
BURBANK        MOSUNNY   72  25  17 SW5       30.06F
ONTARIO        PTSUNNY   71  15  11 CALM      30.05F
RIVERSIDE      SUNNY     74  13   9 CALM      30.05F
PALM SPRINGS   SUNNY     76  11   8 NE3       30.10F
EL CENTRO NAS  SUNNY     73  11   9 NW9       30.09F
IMPERIAL       SUNNY     73  16  11 NW7       30.07F
BLYTHE         SUNNY     70   9   9 N15       30.10F
NEEDLES        SUNNY     66  13  12 N8        30.14F
$$

NVZ020-UTZ003-192000-
SOUTHERN NEVADA-UTAH

CITY           SKY/WX    TMP DP  RH WIND       PRES   REMARKS
LAS VEGAS      MOSUNNY   59  11  15 N3        30.19F
SALT LAKE CITY MOSUNNY   42  23  46 S5        30.23F
$$

NMZ009-TXZ055-192000-
NEW MEXICO-WEST TEXAS

CITY           SKY/WX    TMP DP  RH WIND       PRES   REMARKS
ALBUQUERQUE    PTSUNNY   46   8  21 CALM      30.28F
EL PASO        PTSUNNY   57  11  16 SE7       30.24F
$$


........................KEY........................
SKY/WX - SKY CONDITION/WEATHER
TMP    - TEMPERATURE IN FAHRENHEIT
DP     - DEW POINT IN FAHRENHEIT
RH     - RELATIVE HUMIDITY IN PERCENT
WIND   - DIRECTION AND SPEED IN MILES PER HOUR (MPH)
VRB    - VARIABLE WIND DIRECTION
PRES   - MEAN SEA LEVEL PRESSURE IN INCHES OF MERCURY
         F - FALLING PRESSURE   R - RISING PRESSURE
         S - STEADY PRESSURE
VSB    - VISIBILITY IN MILES
HX     - HEAT INDEX IN FAHRENHEIT
WCI    - WIND CHILL INDEX IN FAHRENHEIT
TC     - TEMPERATURE IN CELSIUS WHICH IS ALSO KNOWN AS
         TEMPERATURE IN CENTIGRADE
AFB    - AIR FORCE BASE
         LUKE AFB IS LUKE AIR FORCE BASE
         DAVIS-MONTHAN IS DAVIS-MONTHAN AIR FORCE BASE
NAS    - NAVAL AIR STATION
         EL CENTRO NAS IS EL CENTRO NAVAL AIR STATION
N/A    - NOT AVAILABLE





USA.gov is the U.S. government's official web portal to all federal, state and local government web resources and services.